Temp
-11 -11 -11 -11 -11 -10 -10 -10 -10 -10 -10 -10 -10 -10 -10 -10 -10 -11 -11 -11 -11 -11 -11 -11 -11 -11 -11 -12 -12 -12 -12 -12 -12 -12 -12 -12 -12 -12 -12 -12 -12 -12 -12 -12 -12 -12 -12
-11 -11 -11 -11 -11 -11 -11 -11 -11 -11 -10 -10 -10 -10 -10 -10 -11 -11 -11 -11 -11 -11 -11 -11 -11 -11 -11 -11 -12 -12 -12 -12 -12 -12 -12 -12 -12 -12 -12 -12 -12 -12 -12 -12 -12 -12 -12
-11 -11 -11 -11 -11 -11 -11 -11 -11 -11 -11 -11 -10 -10 -10 -10 -11 -11 -11 -11 -11 -11 -11 -11 -11 -11 -11 -11 -11 -11 -12 -12 -12 -12 -12 -12 -12 -12 -12 -12 -12 -12 -12 -12 -12 -12 -12
-11 -11 -11 -11 -11 -11 -11 -11 -11 -11 -11 -11 -11 -11 -11 -11 -10 -10 -10 -11 -11 -11 -11 -11 -11 -11 -11 -11 -11 -12 -11 -12 -12 -12 -12 -12 -12 -12 -12 -12 -12 -12 -12 -12 -12 -12 -12
-11 -11 -11 -11 -11 -11 -11 -11 -11 -11 -11 -11 -11 -11 -11 -11 -10 -10 -10 -11 -11 -11 -11 -11 -11 -11 -11 -11 -11 -12 -12 -12 -12 -12 -12 -12 -12 -12 -12 -13 -12 -12 -12 -12 -12 -12 -12
-12 -11 -11 -11 -11 -11 -11 -11 -11 -11 -11 -11 -11 -11 -11 -11 -11 -11 -10 -10 -11 -11 -11 -11 -11 -11 -11 -11 -12 -12 -12 -12 -12 -12 -12 -12 -12 -12 -13 -13 -12 -12 -12 -12 -12 -12 -12
-12 -12 -12 -11 -11 -11 -11 -11 -11 -11 -11 -11 -11 -11 -11 -11 -11 -11 -11 -10 -11 -11 -11 -11 -11 -11 -11 -12 -12 -12 -12 -12 -12 -12 -12 -12 -12 -12 -12 -12 -12 -12 -13 -13 -13 -13 -13
-12 -12 -12 -12 -11 -11 -11 -11 -11 -11 -11 -11 -11 -11 -11 -11 -11 -11 -11 -11 -11 -11 -11 -11 -11 -11 -11 -11 -11 -12 -12 -12 -12 -12 -12 -12 -13 -13 -13 -13 -13 -13 -13 -13 -13 -13 -13
-12 -12 -12 -12 -12 -11 -11 -11 -11 -11 -12 -12 -11 -11 -11 -11 -11 -11 -11 -11 -11 -12 -12 -12 -11 -12 -11 -11 -12 -12 -12 -12 -12 -12 -12 -12 -13 -13 -13 -13 -13 -13 -13 -13 -13 -13 -13
-12 -12 -12 -12 -12 -12 -12 -12 -12 -12 -12 -12 -12 -12 -12 -12 -12 -12 -12 -12 -12 -12 -12 -12 -12 -12 -12 -12 -12 -12 -12 -13 -13 -13 -13 -13 -13 -13 -13 -13 -13 -13 -14 -14 -13 -13 -13
-12 -12 -12 -12 -12 -12 -12 -12 -12 -12 -12 -12 -12 -12 -12 -12 -12 -12 -12 -12 -13 -13 -13 -13 -13 -13 -13 -13 -13 -13 -13 -13 -13 -13 -14 -13 -14 -14 -14 -14 -14 -14 -14 -14 -14 -14 -13
-12 -12 -12 -13 -13 -13 -13 -13 -13 -13 -13 -13 -13 -13 -12 -12 -12 -12 -12 -13 -14 -14 -14 -13 -14 -13 -14 -14 -14 -14 -14 -14 -14 -14 -14 -14 -14 -14 -14 -15 -15 -15 -15 -15 -14 -15 -14
-13 -13 -13 -13 -13 -13 -13 -13 -13 -13 -13 -13 -13 -13 -13 -13 -13 -13 -13 -13 -13 -14 -14 -14 -14 -14 -15 -14 -14 -14 -15 -15 -15 -15 -15 -15 -15 -15 -15 -15 -16 -16 -16 -16 -15 -15 -14
-13 -13 -13 -13 -13 -13 -14 -14 -14 -14 -14 -14 -14 -14 -13 -13 -13 -13 -14 -14 -14 -14 -14 -14 -15 -15 -15 -15 -15 -15 -15 -15 -15 -15 -15 -15 -15 -16 -16 -16 -16 -16 -17 -17 -16 -15 -15
-14 -14 -13 -14 -14 -14 -14 -14 -14 -14 -14 -14 -14 -14 -14 -14 -14 -14 -14 -15 -15 -15 -15 -15 -15 -15 -15 -15 -16 -16 -16 -15 -15 -15 -15 -15 -15 -16 -16 -17 -17 -17 -17 -17 -17 -17 -16
-14 -14 -14 -14 -14 -14 -14 -14 -14 -14 -14 -14 -14 -14 -15 -15 -15 -15 -15 -15 -15 -15 -15 -15 -16 -16 -16 -16 -16 -16 -16 -16 -16 -16 -16 -16 -16 -16 -17 -17 -18 -18 -17 -18 -18 -18 -17
-14 -14 -15 -14 -14 -14 -14 -15 -14 -14 -15 -15 -15 -15 -15 -15 -15 -16 -16 -16 -16 -16 -16 -16 -16 -16 -16 -16 -17 -17 -16 -16 -16 -16 -16 -17 -16 -16 -17 -17 -18 -18 -18 -19 -19 -19 -19
-15 -15 -15 -15 -15 -15 -15 -15 -15 -15 -16 -16 -16 -16 -16 -16 -16 -16 -16 -16 -16 -16 -16 -16 -17 -17 -17 -17 -17 -17 -17 -17 -17 -17 -17 -17 -17 -17 -17 -18 -18 -18 -18 -19 -19 -19 -19
-15 -16 -16 -15 -15 -15 -15 -15 -16 -16 -16 -17 -16 -17 -17 -17 -17 -17 -17 -17 -17 -17 -17 -17 -17 -17 -17 -17 -16 -17 -17 -17 -17 -18 -18 -18 -18 -18 -18 -18 -19 -19 -19 -19 -20 -19 -18
-15 -15 -16 -15 -15 -16 -15 -15 -16 -16 -17 -17 -17 -17 -17 -17 -17 -17 -17 -17 -17 -17 -17 -17 -17 -17 -17 -18 -18 -17 -18 -18 -18 -18 -18 -18 -18 -19 -19 -19 -19 -19 -19 -20 -21 -20 -21
-17 -17 -17 -16 -17 -17 -18 -18 -18 -19 -19 -19 -18 -17 -17 -17 -17 -17 -17 -17 -17 -17 -17 -18 -18 -18 -18 -18 -18 -18 -18 -18 -19 -19 -19 -19 -19 -19 -19 -19 -19 -19 -19 -21 -21 -22 -22
-18 -18 -18 -18 -19 -19 -19 -19 -19 -19 -18 -18 -18 -17 -17 -17 -17 -17 -17 -18 -18 -18 -18 -18 -19 -19 -19 -19 -19 -18 -18 -19 -19 -19 -19 -19 -20 -20 -19 -20 -21 -19 -20 -22 -23 -23 -22
-20 -20 -20 -20 -19 -19 -19 -19 -19 -19 -18 -18 -18 -18 -18 -18 -18 -18 -18 -18 -19 -19 -19 -19 -19 -19 -19 -19 -19 -19 -19 -20 -20 -20 -20 -20 -21 -21 -20 -21 -21 -20 -21 -22 -22 -23 -23
-20 -20 -20 -20 -20 -19 -19 -18 -18 -18 -18 -18 -18 -18 -18 -18 -18 -19 -19 -19 -19 -19 -19 -19 -20 -20 -20 -20 -20 -20 -20 -20 -20 -20 -20 -21 -22 -23 -22 -22 -21 -21 -22 -22 -23 -23 -23
-20 -20 -20 -19 -19 -19 -18 -18 -18 -18 -18 -18 -18 -18 -18 -19 -19 -19 -19 -19 -19 -19 -19 -19 -20 -20 -20 -20 -20 -20 -20 -20 -20 -20 -20 -21 -22 -23 -23 -23 -22 -22 -23 -23 -23 -23 -23
-20 -20 -20 -19 -19 -19 -19 -19 -19 -19 -19 -19 -19 -19 -19 -19 -19 -19 -19 -20 -20 -20 -20 -20 -20 -20 -20 -20 -20 -20 -20 -20 -20 -20 -21 -21 -22 -22 -23 -24 -23 -22 -23 -24 -23 -23 -24
-20 -20 -19 -19 -19 -19 -19 -19 -19 -19 -19 -19 -19 -19 -19 -19 -19 -20 -20 -20 -20 -20 -20 -20 -20 -21 -21 -21 -21 -21 -20 -21 -21 -21 -21 -22 -22 -22 -23 -24 -22 -23 -24 -24 -23 -23 -23
-20 -19 -19 -19 -19 -19 -19 -19 -19 -19 -19 -19 -19 -19 -19 -19 -19 -20 -20 -20 -20 -20 -20 -20 -21 -21 -21 -21 -21 -21 -21 -21 -21 -21 -22 -22 -23 -23 -23 -24 -23 -23 -23 -24 -24 -24 -24
-19 -20 -19 -20 -20 -19 -19 -19 -19 -19 -19 -20 -20 -20 -20 -20 -20 -20 -20 -20 -21 -21 -21 -21 -21 -22 -22 -22 -22 -22 -22 -21 -22 -22 -22 -22 -22 -23 -24 -23 -24 -24 -24 -24 -24 -24 -25
Height
5810 5811 5811 5812 5812 5812 5813 5813 5813 5813 5812 5812 5811 5809 5809 5808 5807 5806 5804 5802 5801 5800 5799 5798 5797 5796 5795 5795 5794 5793 5793 5793 5793 5793 5793 5793 5794 5794 5795 5795 5796 5796 5797 5797 5798 5799 5800
5807 5808 5808 5809 5809 5809 5810 5810 5810 5810 5810 5809 5809 5808 5807 5806 5805 5804 5803 5802 5800 5798 5798 5796 5795 5795 5794 5794 5793 5792 5791 5791 5791 5791 5791 5791 5791 5791 5791 5792 5792 5792 5792 5793 5794 5795 5795
5802 5804 5805 5806 5806 5806 5807 5807 5807 5808 5807 5807 5807 5806 5805 5804 5803 5802 5801 5800 5799 5797 5796 5795 5794 5793 5793 5793 5791 5790 5790 5789 5788 5788 5788 5788 5788 5788 5788 5788 5788 5788 5788 5788 5789 5789 5789
5798 5799 5801 5802 5803 5803 5804 5804 5804 5804 5805 5804 5804 5804 5803 5802 5801 5799 5798 5798 5796 5796 5794 5793 5792 5791 5789 5789 5788 5787 5787 5787 5786 5786 5785 5785 5785 5785 5785 5785 5784 5783 5784 5784 5785 5784 5784
5793 5795 5796 5797 5798 5799 5800 5800 5800 5801 5801 5801 5801 5801 5800 5799 5798 5797 5796 5795 5794 5792 5791 5790 5790 5788 5787 5785 5785 5784 5784 5783 5783 5782 5782 5781 5781 5780 5780 5779 5779 5779 5779 5778 5778 5777 5777
5787 5789 5791 5792 5793 5794 5795 5795 5796 5796 5797 5797 5797 5797 5796 5796 5795 5794 5793 5792 5790 5789 5788 5786 5785 5786 5783 5782 5780 5780 5779 5779 5778 5778 5778 5778 5777 5776 5775 5774 5774 5773 5773 5773 5772 5773 5770
5781 5782 5785 5786 5787 5789 5789 5790 5791 5791 5792 5792 5792 5792 5792 5792 5791 5790 5789 5788 5787 5786 5783 5782 5781 5780 5778 5777 5776 5775 5774 5774 5773 5774 5772 5771 5771 5770 5769 5768 5768 5766 5766 5765 5764 5762 5761
5773 5776 5778 5780 5781 5782 5784 5785 5785 5786 5786 5787 5787 5787 5787 5787 5786 5785 5784 5783 5781 5781 5779 5776 5774 5774 5773 5772 5771 5769 5768 5768 5767 5766 5766 5766 5765 5764 5763 5763 5761 5761 5760 5759 5758 5755 5752
5765 5768 5771 5773 5774 5776 5777 5778 5779 5780 5780 5781 5781 5781 5781 5781 5780 5780 5779 5777 5775 5773 5772 5771 5768 5767 5766 5766 5764 5763 5763 5761 5760 5760 5759 5758 5759 5757 5756 5755 5753 5753 5752 5751 5749 5746 5743
5757 5759 5762 5765 5767 5768 5770 5771 5772 5773 5774 5774 5775 5775 5774 5774 5775 5772 5771 5770 5768 5766 5765 5764 5762 5760 5759 5758 5757 5756 5755 5756 5754 5753 5752 5752 5751 5750 5749 5748 5746 5745 5743 5741 5739 5735 5732
5748 5750 5753 5755 5758 5760 5761 5763 5764 5765 5766 5767 5768 5768 5768 5767 5766 5765 5765 5762 5760 5758 5757 5757 5755 5753 5753 5752 5751 5750 5749 5748 5747 5746 5747 5746 5744 5742 5741 5740 5738 5738 5735 5732 5729 5725 5721
5738 5742 5744 5747 5748 5750 5752 5754 5755 5757 5758 5759 5760 5760 5760 5760 5759 5758 5756 5755 5754 5754 5751 5750 5749 5748 5747 5745 5744 5742 5742 5741 5740 5739 5737 5736 5735 5734 5733 5731 5729 5727 5724 5721 5717 5715 5708
5728 5731 5734 5737 5739 5740 5743 5745 5746 5748 5750 5751 5752 5752 5753 5752 5752 5750 5748 5748 5748 5746 5744 5744 5743 5742 5741 5739 5738 5737 5736 5735 5733 5732 5731 5728 5727 5725 5724 5721 5719 5716 5714 5709 5704 5702 5701
5717 5720 5723 5727 5729 5731 5734 5736 5738 5740 5742 5743 5743 5744 5745 5744 5743 5743 5741 5740 5739 5737 5736 5736 5736 5734 5733 5732 5731 5730 5729 5728 5727 5724 5721 5719 5720 5717 5714 5712 5710 5707 5705 5701 5691 5690 5688
5705 5709 5713 5717 5720 5722 5725 5727 5729 5732 5733 5735 5736 5736 5737 5736 5735 5735 5735 5732 5731 5729 5728 5728 5727 5726 5725 5724 5723 5722 5721 5720 5717 5715 5712 5708 5708 5706 5706 5703 5701 5698 5695 5690 5683 5681 5674
5693 5698 5703 5708 5710 5713 5714 5719 5721 5723 5725 5725 5726 5727 5728 5728 5727 5726 5727 5725 5723 5721 5720 5720 5719 5718 5717 5716 5715 5713 5713 5711 5708 5705 5702 5700 5696 5696 5694 5693 5691 5687 5685 5680 5675 5668 5663
5682 5688 5693 5698 5701 5704 5704 5708 5712 5712 5714 5715 5718 5718 5719 5719 5719 5719 5719 5717 5716 5714 5714 5714 5711 5710 5710 5708 5707 5706 5705 5701 5699 5697 5694 5691 5689 5688 5685 5682 5679 5677 5673 5669 5662 5658 5651
5671 5676 5681 5686 5692 5695 5698 5699 5699 5702 5705 5706 5708 5709 5712 5712 5713 5711 5711 5709 5709 5707 5705 5705 5704 5703 5701 5699 5698 5697 5695 5691 5688 5686 5684 5681 5677 5676 5674 5671 5668 5665 5660 5655 5646 5644 5639
5659 5664 5670 5675 5680 5684 5687 5690 5690 5692 5694 5697 5698 5701 5704 5705 5704 5704 5703 5701 5701 5699 5697 5697 5696 5695 5692 5691 5689 5687 5685 5681 5678 5674 5671 5669 5664 5663 5660 5660 5654 5650 5645 5638 5632 5628 5625
5647 5654 5660 5666 5669 5673 5677 5679 5683 5684 5685 5688 5691 5693 5696 5697 5697 5696 5695 5694 5693 5692 5690 5689 5688 5686 5684 5682 5680 5676 5674 5671 5668 5664 5660 5655 5654 5651 5647 5643 5639 5634 5629 5623 5618 5612 5612
5640 5646 5651 5655 5659 5662 5667 5671 5675 5677 5679 5681 5684 5686 5689 5689 5689 5689 5687 5688 5686 5685 5683 5682 5681 5678 5676 5674 5671 5670 5666 5662 5659 5654 5649 5643 5641 5638 5635 5629 5624 5621 5615 5610 5604 5602 5590
5632 5639 5644 5649 5654 5659 5663 5665 5668 5672 5675 5677 5678 5679 5681 5680 5681 5680 5679 5678 5677 5676 5676 5674 5671 5669 5667 5664 5662 5659 5656 5652 5650 5645 5639 5634 5629 5625 5624 5617 5610 5607 5602 5597 5592 5587 5578
5630 5636 5639 5643 5648 5653 5658 5659 5663 5666 5668 5670 5671 5671 5671 5673 5673 5672 5671 5669 5669 5667 5666 5664 5662 5659 5657 5655 5652 5649 5645 5642 5638 5633 5627 5622 5614 5608 5608 5603 5596 5595 5591 5583 5579 5572 5564
5627 5631 5635 5640 5644 5648 5651 5655 5656 5658 5660 5662 5663 5663 5664 5665 5664 5664 5663 5663 5661 5659 5658 5655 5653 5650 5649 5645 5642 5639 5635 5631 5627 5622 5615 5608 5601 5594 5591 5586 5582 5576 5571 5565 5560 5556 5546
5621 5627 5631 5636 5639 5642 5645 5647 5649 5651 5654 5655 5655 5655 5655 5656 5655 5656 5654 5653 5652 5651 5650 5646 5643 5641 5637 5635 5632 5628 5625 5621 5617 5612 5606 5597 5589 5580 5573 5569 5567 5565 5558 5552 5543 5541 5530
5615 5620 5625 5629 5633 5635 5638 5640 5642 5644 5645 5646 5646 5647 5648 5648 5648 5647 5646 5645 5643 5641 5640 5637 5634 5630 5627 5623 5620 5616 5612 5608 5604 5598 5593 5586 5577 5569 5560 5553 5548 5545 5540 5532 5524 5522 5513
5609 5614 5619 5622 5625 5628 5630 5631 5633 5635 5636 5638 5638 5639 5641 5641 5640 5639 5638 5636 5634 5632 5630 5627 5624 5621 5617 5612 5609 5604 5600 5595 5590 5585 5578 5571 5563 5556 5547 5538 5537 5531 5523 5515 5509 5504 5494
5602 5606 5611 5614 5617 5621 5622 5624 5626 5626 5627 5628 5630 5631 5632 5632 5631 5631 5629 5627 5624 5622 5620 5617 5614 5611 5606 5601 5596 5591 5587 5582 5576 5571 5564 5557 5547 5542 5534 5523 5516 5513 5505 5499 5492 5484 5478
5594 5599 5603 5606 5609 5612 5614 5616 5617 5619 5619 5620 5622 5622 5622 5622 5621 5620 5618 5617 5615 5612 5609 5605 5602 5598 5593 5588 5583 5576 5572 5567 5562 5557 5550 5541 5536 5528 5521 5510 5502 5494 5487 5480 5474 5468 5462
Wind_Speed
19 17 16 16 15 15 16 14 13 13 13 14 15 14 13 14 14 14 14 11 9 10 10 8 7 6 7 8 8 8 8 8 9 10 11 12 13 13 14 15 18 20 21 22 22 22 23
22 21 20 19 18 18 18 17 16 14 14 14 15 16 16 16 15 15 15 15 11 8 8 9 9 7 8 9 9 10 10 10 11 11 12 13 15 15 16 17 18 19 20 22 23 23 24
24 24 24 22 21 21 20 20 19 18 16 16 18 18 18 18 17 16 17 16 16 13 10 9 10 10 9 10 10 11 11 12 13 13 13 14 15 16 18 19 19 20 22 23 23 23 25
25 25 25 24 23 21 20 20 20 19 20 18 18 19 18 19 19 18 17 17 17 18 16 14 13 13 13 13 13 14 14 14 14 15 16 18 19 19 18 20 21 23 24 24 23 26 27
28 27 26 26 25 26 24 23 23 21 20 20 21 20 20 19 19 19 18 19 18 18 20 20 18 16 16 18 17 18 17 18 18 19 19 20 19 20 21 23 25 25 25 26 27 29 29
32 30 28 27 27 27 27 25 23 24 23 21 22 22 22 22 21 21 20 20 21 21 21 23 23 21 20 18 20 20 21 21 22 22 23 23 23 23 23 24 26 27 28 29 29 31 33
36 34 32 30 28 29 28 29 27 26 28 27 26 25 24 24 23 23 24 24 23 23 24 23 24 25 25 24 23 22 23 23 24 25 26 27 27 27 27 28 28 29 29 29 31 34 36
38 37 35 34 32 31 31 31 31 31 29 33 31 29 29 28 26 25 25 27 27 26 23 24 25 25 26 27 24 23 24 27 27 27 28 30 30 30 29 29 29 30 32 32 35 38 41
40 39 38 37 36 35 34 34 35 35 34 32 33 34 32 31 31 34 32 32 30 27 24 26 27 27 25 26 26 27 26 27 29 29 28 30 31 32 32 32 33 34 35 36 39 41 43
44 44 42 41 40 39 38 37 37 36 36 36 33 34 35 36 36 33 33 31 30 30 29 28 27 27 26 25 26 26 26 26 28 29 30 30 31 33 35 36 38 38 39 40 42 45 47
47 47 47 47 44 43 41 39 38 38 38 38 36 36 35 34 31 33 33 32 30 29 31 27 24 24 25 26 26 27 27 27 28 28 30 31 32 34 36 38 39 40 42 45 48 50 53
49 46 45 44 43 45 46 45 42 42 40 39 37 36 36 35 35 33 33 32 30 29 29 27 25 23 22 24 27 28 27 29 30 30 33 34 35 35 37 38 41 45 48 51 53 53 57
51 49 48 44 42 41 40 41 41 41 41 40 38 37 37 39 35 35 34 33 33 32 31 28 25 24 26 26 27 28 30 31 31 31 31 35 35 37 39 42 45 48 50 51 56 55 55
52 50 46 41 40 41 38 41 41 41 40 38 38 38 39 38 36 35 34 34 31 29 28 29 30 30 29 30 31 32 34 35 36 39 41 42 40 41 41 42 44 45 46 47 54 55 56
43 45 44 40 40 44 43 41 42 44 38 38 41 40 39 37 34 34 33 31 29 27 26 27 27 27 27 28 29 29 30 33 37 40 43 46 46 45 43 42 42 43 43 45 49 52 57
42 41 41 42 43 44 47 45 41 46 44 41 42 40 39 36 35 32 29 28 28 28 27 26 26 26 26 27 29 33 33 34 35 37 39 41 45 44 43 43 42 44 46 46 47 51 56
43 41 42 42 41 43 48 44 47 51 42 40 40 39 35 34 30 28 27 26 24 27 26 27 28 29 30 32 33 34 33 34 35 36 38 41 43 45 45 45 45 45 47 49 52 55 57
44 42 47 45 43 41 41 38 37 41 38 38 36 38 30 28 28 26 26 27 26 27 27 28 28 29 30 32 32 33 35 37 40 41 43 43 47 47 47 49 51 54 55 55 58 59 61
50 47 44 43 46 45 42 43 39 38 34 32 31 28 24 26 27 27 28 29 27 25 28 28 29 29 32 34 37 36 37 40 42 44 46 46 49 50 51 51 52 54 56 59 60 61 64
51 50 45 48 42 44 49 49 44 39 22 25 27 27 26 28 26 26 26 27 26 26 27 28 29 32 34 34 36 40 40 41 42 44 46 48 49 50 52 54 56 57 60 60 57 61 56
28 26 28 31 28 26 23 22 22 22 21 22 23 24 22 26 30 28 29 28 28 29 31 31 32 32 33 36 37 37 40 42 44 46 46 49 51 52 52 53 55 56 58 56 56 54 57
20 19 21 22 22 19 20 23 25 26 27 28 27 26 25 26 29 30 30 30 31 33 32 30 31 32 33 36 39 42 44 45 46 47 50 52 54 54 55 54 54 58 58 53 53 54 59
23 23 20 19 21 22 24 24 25 26 25 25 26 28 28 26 28 28 29 31 31 30 29 31 32 34 35 38 40 41 43 44 47 48 51 52 53 53 54 55 56 57 57 61 61 59 62
25 25 25 24 22 22 23 24 24 26 27 27 27 27 27 26 28 28 28 30 30 30 31 31 33 35 36 38 41 42 43 44 46 49 51 53 52 54 57 59 61 61 59 58 56 56 58
28 30 28 23 24 23 23 23 25 24 25 26 25 24 26 25 27 29 30 29 30 32 33 34 36 37 38 38 40 40 41 44 45 48 50 52 52 55 58 58 61 59 59 57 59 58 61
36 25 24 24 25 25 25 23 22 22 23 24 24 25 26 27 27 30 30 30 31 32 34 35 37 39 38 39 40 41 44 46 48 48 47 48 52 57 59 59 61 59 59 61 64 63 63
34 28 26 25 25 24 23 22 22 22 22 23 24 26 28 30 30 30 31 32 33 34 34 36 40 40 42 41 43 44 44 45 47 46 46 48 53 56 59 63 62 61 63 63 63 64 65
33 29 27 26 24 24 23 23 24 23 23 24 25 27 29 31 32 32 33 34 35 36 39 40 43 44 44 45 46 47 48 48 46 45 48 50 54 56 62 66 66 63 64 64 63 63 63
36 32 30 26 25 24 24 25 25 27 26 26 28 29 31 32 32 33 35 37 39 41 43 44 46 48 48 50 50 52 54 52 51 52 53 55 55 58 60 63 63 64 64 64 64 63 63
Wind_Direction
251 252 257 260 259 257 260 272 287 297 304 308 315 320 324 324 324 325 331 339 338 333 322 317 322 303 301 299 292 281 273 264 259 256 259 259 257 256 253 249 247 247 248 248 245 243 243
251 253 254 259 264 263 263 265 276 281 288 295 301 309 317 320 323 320 319 328 330 331 330 315 306 304 287 282 283 281 277 271 267 265 262 261 261 260 258 256 256 255 254 253 256 255 253
249 252 254 257 266 266 265 270 277 281 283 292 299 304 308 311 316 317 314 310 317 321 311 307 303 300 289 280 271 272 273 271 271 269 269 266 263 264 265 265 265 262 260 261 259 259 256
253 251 253 257 261 264 267 274 281 282 285 288 293 298 304 307 310 312 312 309 305 304 310 306 301 291 289 285 277 269 268 268 270 271 270 269 269 269 267 267 264 261 260 262 262 261 259
250 253 253 255 259 259 263 272 278 282 282 286 292 297 302 304 307 307 308 309 306 304 299 298 300 297 287 281 277 274 268 264 265 268 268 271 270 269 267 265 263 265 263 261 259 260 260
252 251 251 255 256 255 258 263 273 275 279 281 288 293 299 303 306 308 307 306 305 303 298 295 291 293 293 290 278 272 269 269 266 265 269 269 271 266 266 265 262 262 263 264 266 264 263
251 251 252 252 257 256 255 259 265 270 269 273 281 286 294 297 300 304 303 302 299 297 296 296 291 287 290 291 287 271 268 271 271 270 268 267 267 268 267 268 268 265 263 262 264 265 265
250 252 254 255 257 258 259 262 265 272 276 270 275 282 287 291 295 303 302 303 298 295 293 294 290 286 286 288 286 277 271 266 268 269 269 268 267 269 268 270 269 266 265 267 269 270 268
248 252 254 256 258 260 262 264 266 269 271 276 275 276 283 285 288 294 297 300 296 294 287 287 287 283 285 284 282 280 276 270 264 265 265 265 266 267 268 268 268 266 265 268 272 271 271
249 249 253 256 257 259 260 262 264 266 268 273 279 277 281 284 287 290 296 301 296 292 289 287 283 281 282 284 280 277 274 270 267 266 266 267 267 266 267 268 269 266 266 269 271 272 271
251 257 254 251 254 257 260 260 261 265 269 271 274 278 280 282 284 289 295 295 293 289 292 289 282 280 282 282 278 273 273 270 268 268 269 270 268 269 270 269 270 268 268 271 273 274 273
252 255 261 257 256 257 257 258 262 263 265 268 272 274 277 282 283 285 292 293 291 291 293 288 284 283 283 281 276 274 272 270 271 270 270 269 269 269 269 270 270 271 272 273 275 276 275
252 253 257 253 256 258 258 258 258 257 262 266 267 269 273 280 279 284 286 288 291 289 291 286 286 285 285 281 278 274 273 273 274 273 274 274 275 274 273 272 272 273 276 278 276 277 278
251 249 247 248 250 252 254 254 255 258 260 261 261 269 270 273 276 279 284 286 284 286 282 282 284 282 279 278 277 278 277 279 280 281 280 277 275 275 276 277 278 278 280 281 280 280 280
242 240 238 241 242 249 252 252 255 256 253 261 265 265 267 272 274 278 280 276 281 279 280 280 282 283 281 278 277 278 280 283 282 281 280 281 280 279 280 280 280 280 281 282 283 282 281
233 232 234 236 235 242 251 251 255 256 252 255 259 263 268 269 272 275 274 270 272 277 279 280 280 280 277 274 277 281 286 286 284 283 283 283 283 284 285 284 283 283 284 287 288 286 284
235 234 234 231 233 238 241 247 241 246 248 253 255 261 262 265 270 271 268 265 270 277 279 280 280 281 282 281 282 286 291 289 288 289 289 288 287 286 286 284 283 284 284 286 284 284 284
220 227 228 230 233 231 235 233 241 241 240 247 251 252 255 261 268 269 270 270 273 278 279 278 280 283 284 285 287 290 292 292 293 292 291 289 288 287 285 283 283 283 285 285 284 285 284
216 223 226 223 224 226 223 223 223 224 226 232 241 251 256 267 275 276 268 272 275 275 275 275 279 282 284 288 290 290 290 290 291 292 292 292 290 292 289 288 286 284 284 285 287 286 284
218 223 231 230 223 225 230 228 237 229 247 241 246 253 264 268 274 273 271 272 274 273 273 277 279 281 284 287 289 291 295 298 299 298 298 295 295 294 294 293 292 291 289 289 289 288 292
201 197 208 211 213 213 219 226 240 249 257 259 260 268 266 266 266 269 271 275 274 275 278 280 281 285 291 294 296 302 302 304 303 302 300 299 299 298 296 293 291 291 290 290 291 293 289
196 198 199 207 214 218 223 225 235 245 253 255 260 265 260 262 266 268 272 277 280 279 281 290 293 295 298 302 304 305 304 303 302 302 301 300 299 296 294 294 293 291 293 293 292 292 292
218 222 223 223 225 218 223 229 236 242 246 252 255 256 260 261 267 271 276 278 279 284 290 291 295 299 301 301 303 303 303 303 302 302 302 302 301 298 296 294 292 294 292 290 292 295 293
226 227 225 227 231 234 240 242 243 248 250 252 254 257 263 269 272 277 279 280 287 290 292 296 297 297 299 302 302 302 304 304 304 305 305 304 300 296 296 295 294 296 295 297 297 296 296
229 223 222 227 232 240 246 253 254 253 255 256 257 262 267 273 276 279 280 286 287 287 290 295 295 297 299 300 300 302 302 302 302 305 307 306 303 301 300 300 300 296 294 296 296 295 294
233 228 236 239 243 249 252 249 251 254 259 263 267 270 272 271 273 275 279 282 282 286 290 292 293 295 297 297 296 298 300 302 306 305 307 308 308 307 306 304 305 306 303 298 293 293 293
237 233 240 244 251 255 256 255 255 259 263 265 264 268 269 270 274 275 279 281 282 286 287 288 290 292 290 290 293 294 297 299 301 305 307 308 309 310 309 306 307 306 302 300 299 295 295
235 235 240 246 252 258 259 261 264 262 260 263 266 268 269 272 274 277 279 281 283 284 286 287 287 288 286 289 292 294 294 297 298 302 303 304 305 309 312 311 309 306 302 299 297 295 293
236 237 240 241 247 253 258 262 266 267 264 263 264 266 267 270 274 277 279 282 283 283 284 285 285 287 287 291 293 295 297 298 299 300 300 299 301 305 308 308 308 305 301 300 299 296 295